Weather History for KSSI - September, 2013

Change the Weather History Date:

Saturday, September 28, 2013

  Actual Average Record
Temperature  
Mean Temperature 73 °F 75 °F  
Max Temperature 77 °F 82 °F 91 °F (1986)
Min Temperature 69 °F 69 °F 54 °F (1962)
Degree Days  
Heating Degree Days 0 0  
Month to date heating degree days 0 0  
Since 1 July heating degree days 0 0  
Cooling Degree Days 8 11  
Month to date cooling degree days 398 376  
Year to date cooling degree days 2343 2352  
Growing Degree Days 23 (Base 50)    
Moisture  
Dew Point 63 °F    
Average Humidity 69    
Maximum Humidity 78    
Minimum Humidity 60    
Precipitation  
Precipitation 0.00 in 0.18 in 3.35 in (1984)
Month to date precipitation 10.89 5.40  
Year to date precipitation 45.83 35.51  
Snow  
Snow 0.00 in - 0.00 in ()
Month to date snowfall 0.0  
Since 1 July snowfall 0.0  
Since 1 September snowfall 0.0  
Snow Depth 0.00 in    
Sea Level Pressure  
Sea Level Pressure 30.07 in    
Wind  
Wind Speed 13 mph (NE)    
Max Wind Speed 20 mph    
Max Gust Speed 25 mph    
Visibility 10 miles    
Events      
T = Trace of Precipitation, MM = Missing Value Source: NWS Daily Summary

Daily Weather History Graph

Daily Weather History Graph

Search for Another Location

Airport or City:

Trip Planner

Search our weather history database for the weather conditions in past years. The results will help you decide how hot, cold, wet, or windy it might be!

Date:

Astronomy

Sep. 28, 2013 Rise Set
Actual Time 7:17 AM EDT 7:14 PM EDT
Civil Twilight 6:53 AM EDT 7:38 PM EDT
Nautical Twilight 6:25 AM EDT 8:06 PM EDT
Astronomical Twilight 5:57 AM EDT 8:34 PM EDT
Moon 1:23 AM EDT (9/28) 3:13 PM EDT (9/28)
Length of Visible Light 12h 44m
Length of Day
11h 56m
Last Quarter, 36% of the Moon is Illuminated
Sep 28
Last Quarter
Oct 4
New
Oct 11
First Quarter
Oct 18
Full
Oct 26
Last Quarter

Hourly Weather History & Observations

Time (EDT) Temp. Dew Point Humidity Pressure Visibility Wind Dir Wind Speed Gust Speed Precip Events Conditions
12:53 AM 73.9 °F 63.0 °F 68% 30.04 in 10.0 mi NE 15.0 mph 20.7 mph N/A   Partly Cloudy
1:53 AM 75.0 °F 63.0 °F 66% 30.04 in 10.0 mi NE 15.0 mph 20.7 mph N/A   Overcast
2:53 AM 73.9 °F 63.0 °F 68% 30.03 in 10.0 mi NE 12.7 mph 19.6 mph N/A   Overcast
3:53 AM 73.9 °F 63.0 °F 68% 30.02 in 10.0 mi NE 12.7 mph - N/A   Overcast
4:53 AM 73.9 °F 64.0 °F 71% 30.03 in 10.0 mi NE 15.0 mph 20.7 mph N/A   Overcast
5:53 AM 73.0 °F 62.1 °F 68% 30.04 in 10.0 mi NE 11.5 mph 21.9 mph N/A   Overcast
6:53 AM 70.0 °F 63.0 °F 78% 30.06 in 10.0 mi North 12.7 mph 21.9 mph N/A   Overcast
7:53 AM 69.1 °F 62.1 °F 78% 30.07 in 10.0 mi NNE 11.5 mph - N/A   Clear
8:53 AM 71.1 °F 62.1 °F 73% 30.09 in 10.0 mi North 10.4 mph - N/A   Clear
9:53 AM 73.0 °F 60.1 °F 64% 30.11 in 10.0 mi North 13.8 mph 24.2 mph N/A   Overcast
10:53 AM 72.0 °F 59.0 °F 64% 30.12 in 10.0 mi NNE 17.3 mph 24.2 mph N/A   Partly Cloudy
11:53 AM 73.9 °F 61.0 °F 64% 30.12 in 10.0 mi NE 15.0 mph - N/A   Clear
12:53 PM 75.0 °F 62.1 °F 64% 30.12 in 10.0 mi NE 13.8 mph - N/A   Scattered Clouds
1:53 PM 75.9 °F 63.0 °F 64% 30.10 in 10.0 mi NE 15.0 mph 21.9 mph N/A   Scattered Clouds
2:53 PM 75.9 °F 63.0 °F 64% 30.08 in 10.0 mi NNE 13.8 mph - N/A   Mostly Cloudy
3:53 PM 77.0 °F 63.0 °F 62% 30.07 in 10.0 mi NE 11.5 mph - N/A   Clear
4:53 PM 75.9 °F 63.0 °F 64% 30.07 in 10.0 mi NE 13.8 mph 23.0 mph N/A   Partly Cloudy
5:53 PM 75.0 °F 63.0 °F 66% 30.07 in 10.0 mi NNE 13.8 mph - N/A   Clear
6:53 PM 73.0 °F 63.0 °F 71% 30.07 in 10.0 mi NE 11.5 mph - N/A   Scattered Clouds
7:53 PM 73.0 °F 64.0 °F 73% 30.07 in 10.0 mi NNE 10.4 mph - N/A   Mostly Cloudy
8:53 PM 73.0 °F 64.0 °F 73% 30.07 in 10.0 mi NNE 8.1 mph - N/A   Scattered Clouds
9:53 PM 73.0 °F 64.0 °F 73% 30.08 in 10.0 mi NE 11.5 mph - N/A   Scattered Clouds
10:53 PM 73.0 °F 64.0 °F 73% 30.07 in 10.0 mi NE 12.7 mph - N/A   Mostly Cloudy
11:25 PM 73.4 °F 64.4 °F 73% 30.07 in 10.0 mi NE 10.4 mph - N/A   Overcast
11:53 PM 73.9 °F 64.9 °F 73% 30.07 in 10.0 mi NE 9.2 mph - N/A   Overcast